, AK

(GMT )
Anchorage

Weather History for PANC - August, 2014

Change the Weather History Date:

Monday, August 25, 2014

  Actual Average Record
Temperature  
Mean Temperature 56 °F 55 °F  
Max Temperature 60 °F 62 °F 76 °F (1987)
Min Temperature 52 °F 48 °F 38 °F (1964)
Degree Days  
Heating Degree Days 9    
Month to date heating degree days 135  
Since 1 June heating degree days 617  
Since 1 July heating degree days 289  
Cooling Degree Days 0    
Month to date cooling degree days 0  
Year to date cooling degree days 3  
Since 1 June cooling degree days 3  
Growing Degree Days 6 (Base 50)    
Moisture  
Dew Point 49 °F    
Average Humidity 81    
Maximum Humidity 93    
Minimum Humidity 69    
Precipitation  
Precipitation 0.53 in 0.12 in 2.70 in (1989)
Month to date precipitation 1.79 2.57  
Year to date precipitation 11.58 8.61  
Snow  
Snow 0.00 in 0.00 in 0.00 in ()
Month to date snowfall 0.0 0.0  
Since 1 June snowfall 0.0 0.0  
Since 1 July snowfall 0.0 0.0  
Snow Depth 0.00 in    
Sea Level Pressure  
Sea Level Pressure 29.65 in    
Wind  
Wind Speed 5 mph (SSE)    
Max Wind Speed 8 mph    
Max Gust Speed 17 mph    
Visibility 9 miles    
Events Rain    
T = Trace of Precipitation, MM = Missing Value Source: NWS Daily Summary

Daily Weather History Graph

Daily Weather History Graph

Search for Another Location

Airport or City:

Trip Planner

Search our weather history database for the weather conditions in past years. The results will help you decide how hot, cold, wet, or windy it might be!

Date:

Astronomy

Aug. 25, 2014 Rise Set
Actual Time 6:34 AM AKDT 9:27 PM AKDT
Civil Twilight 5:45 AM AKDT 10:16 PM AKDT
Nautical Twilight 4:36 AM AKDT 11:23 PM AKDT
Astronomical Twilight 2:23 AM AKDT 1:20 AM AKDT
Moon 7:07 AM AKDT (8/25) 8:56 PM AKDT (8/25)
Length of Visible Light 16h 31m
Length of Day
14h 52m
New Moon, 0% of the Moon is Illuminated
Aug 25
New Moon
Sep 2
First Quarter
Sep 8
Full
Sep 15
Last Quarter
Sep 23
New

Hourly Weather History & Observations

Time (AKDT) Temp. Dew Point Humidity Pressure Visibility Wind Dir Wind Speed Gust Speed Precip Events Conditions
12:53 AM 53.1 °F 48.0 °F 83% 29.64 in 10.0 mi Calm Calm - N/A   Overcast
1:53 AM 53.1 °F 48.9 °F 86% 29.64 in 10.0 mi Calm Calm - N/A   Overcast
2:53 AM 52.0 °F 48.9 °F 89% 29.63 in 10.0 mi West 5.8 mph - N/A   Overcast
3:53 AM 53.1 °F 48.9 °F 86% 29.62 in 10.0 mi SE 5.8 mph - 0.02 in Rain Light Rain
4:50 AM 51.8 °F 48.2 °F 88% 29.61 in 10.0 mi South 3.5 mph - 0.11 in Rain Light Rain
4:53 AM 52.0 °F 48.9 °F 89% 29.62 in 10.0 mi SSE 3.5 mph - 0.11 in Rain Light Rain
5:53 AM 53.1 °F 50.0 °F 89% 29.61 in 8.0 mi SSE 3.5 mph - 0.07 in Rain Light Rain
6:53 AM 53.1 °F 50.0 °F 89% 29.61 in 5.0 mi Calm Calm - 0.17 in Rain Light Rain
7:53 AM 54.0 °F 50.0 °F 86% 29.61 in 5.0 mi SSE 6.9 mph - 0.09 in Rain Light Rain
8:00 AM 53.6 °F 50.0 °F 88% 29.61 in 5.0 mi SSE 9.2 mph - 0.00 in Rain Light Rain
8:53 AM 54.0 °F 51.1 °F 90% 29.61 in 6.0 mi SSE 8.1 mph - 0.04 in Rain Light Rain
9:30 AM 53.6 °F 50.0 °F 88% 29.61 in 4.0 mi South 5.8 mph - 0.01 in Rain Light Rain
9:53 AM 55.0 °F 50.0 °F 83% 29.62 in 5.0 mi South 5.8 mph - 0.01 in Rain Light Rain
10:31 AM 53.6 °F 51.8 °F 94% 29.62 in 8.0 mi SSE 5.8 mph - 0.00 in Rain Light Rain
10:53 AM 54.0 °F 50.0 °F 86% 29.63 in 9.0 mi SSE 8.1 mph - 0.00 in Rain Light Rain
11:53 AM 54.0 °F 50.0 °F 86% 29.64 in 7.0 mi SSE 6.9 mph - 0.02 in Rain Light Rain
12:53 PM 57.9 °F 52.0 °F 81% 29.65 in 9.0 mi SE 6.9 mph - 0.00 in   Overcast
1:53 PM 60.1 °F 50.0 °F 69% 29.65 in 10.0 mi SE 5.8 mph - N/A   Overcast
2:53 PM 59.0 °F 50.0 °F 72% 29.66 in 10.0 mi South 8.1 mph - 0.00 in   Overcast
3:53 PM 57.9 °F 51.1 °F 78% 29.68 in 10.0 mi SSE 8.1 mph 17.3 mph 0.01 in Rain Light Rain
4:53 PM 55.9 °F 51.1 °F 84% 29.66 in 10.0 mi SE 6.9 mph - 0.00 in   Mostly Cloudy
5:53 PM 60.8 °F 46.4 °F 59% 29.67 in 10.0 mi Variable 4.6 mph - N/A   Mostly Cloudy
6:53 PM 60.8 °F 50.0 °F 68% 29.67 in 10.0 mi ENE 3.5 mph - N/A   Mostly Cloudy
7:53 PM 60.1 °F 48.0 °F 64% 29.69 in 10.0 mi South 8.1 mph - N/A   Mostly Cloudy
8:53 PM 57.0 °F 46.9 °F 69% 29.70 in 10.0 mi South 10.4 mph 16.1 mph 0.00 in   Mostly Cloudy
9:53 PM 55.9 °F 46.9 °F 72% 29.72 in 10.0 mi SSE 9.2 mph - N/A   Mostly Cloudy
10:53 PM 55.9 °F 48.0 °F 75% 29.74 in 10.0 mi South 5.8 mph - N/A   Mostly Cloudy
11:53 PM 54.0 °F 46.9 °F 77% 29.75 in 10.0 mi SSE 6.9 mph - N/A   Mostly Cloudy